Location: *
(44.3925°N, 5.4708°E)
Time: 19:59:46
(UTC+00:00)

NOAA 11 - Pass Details

Date: 18 September 2019
Orbit: 832 x 850 km, 98.4° (Epoch: 16 October)

Event Time Altitude Azimuth Distance (km) Brightness Sun altitude
Rises 18:41:18 0° 169° (S) 3,401 7.1 -11.0°
Reaches altitude 10° 18:43:40 10° 171° (S) 2,469 6.4 -11.4°
Maximum altitude 18:49:09 77° 257° (WSW) 876 4.4 -12.3°
Drops below altitude 10° 18:54:40 10° 344° (NNW) 2,479 7.1 -13.3°
Sets 18:57:03 0° 346° (NNW) 3,417 7.8 -13.7°
